�N����,����,�~����,�C��,���x,�C��,����,���ϕ���,�ő�u�ԕ���,�ő厞����,���˗�,�I�_���x,�n�����x,�ő啗���N��,DTYPE
"20/09/26","00:10",0.0,20.6,96.2,1001.0,331.3,0.7,1.6,338.0,0.00,20.0,22.9,"00:04:56",1
"20/09/26","00:20",0.0,20.5,96.2,1001.2,355.7,0.6,1.4,350.1,0.00,19.9,23.2,"00:12:24",1
"20/09/26","00:30",0.0,20.5,96.3,1001.2,6.6,0.3,1.1,72.4,0.00,19.9,23.1,"00:21:04",1
"20/09/26","00:40",0.0,20.5,96.3,1001.2,336.3,0.3,1.2,332.8,0.00,19.9,23.2,"00:30:02",1
"20/09/26","00:50",0.0,20.4,96.3,1001.5,337.9,0.6,1.7,14.9,0.00,19.8,23.1,"00:41:28",1
"20/09/26","01:00",0.0,20.2,96.3,1001.2,108.4,0.3,1.3,58.2,0.00,19.6,23.2,"00:53:20",1
"20/09/26","01:10",0.0,20.0,96.4,1001.2,321.8,0.7,2.1,345.3,0.00,19.4,23.0,"01:08:40",1
"20/09/26","01:20",0.0,19.8,96.5,1001.0,341.5,0.7,1.8,355.4,0.00,19.3,23.0,"01:18:32",1
"20/09/26","01:30",0.0,19.7,96.6,1001.2,354.7,0.7,1.6,353.4,0.00,19.2,22.8,"01:22:48",1
"20/09/26","01:40",0.0,19.5,96.6,1001.2,295.4,0.7,1.8,324.6,0.00,19.0,22.9,"01:36:16",1
"20/09/26","01:50",0.0,19.3,96.7,1001.2,316.9,0.7,1.2,324.0,0.00,18.8,22.8,"01:49:52",1
"20/09/26","02:00",0.0,19.2,96.7,1001.2,320.4,0.7,1.3,341.7,0.00,18.7,22.8,"01:52:16",1
"20/09/26","02:10",0.0,19.0,96.8,1001.2,291.5,0.6,1.6,334.0,0.00,18.5,22.7,"02:06:16",1
"20/09/26","02:20",0.0,19.0,96.9,1001.2,304.3,0.7,1.3,336.2,0.00,18.5,22.7,"02:16:24",1
"20/09/26","02:30",0.0,19.0,96.9,1001.0,312.1,0.2,0.8,38.7,0.00,18.5,22.6,"02:23:44",1
"20/09/26","02:40",0.0,18.8,96.9,1001.5,310.4,0.5,1.7,325.9,0.00,18.3,22.7,"02:39:52",1
"20/09/26","02:50",0.0,18.8,97.0,1001.2,312.7,1.0,1.9,315.6,0.00,18.4,22.5,"02:40:40",1
"20/09/26","03:00",0.0,18.6,97.0,1001.7,269.1,0.6,1.1,343.9,0.00,18.2,22.7,"02:50:32",1
"20/09/26","03:10",0.0,18.7,97.0,1001.5,334.9,0.8,2.0,343.1,0.00,18.3,22.5,"03:04:24",1
"20/09/26","03:20",0.0,18.7,97.1,1001.5,337.4,0.5,1.1,323.5,0.00,18.3,22.5,"03:11:12",1
"20/09/26","03:30",0.0,18.6,97.0,1001.7,307.9,0.6,1.0,350.2,0.00,18.2,22.4,"03:20:24",1
"20/09/26","03:40",0.0,18.3,97.1,1001.5,269.9,0.6,1.6,305.7,0.00,17.9,22.5,"03:32:24",1
"20/09/26","03:50",0.0,18.4,97.2,1001.7,306.9,0.6,1.1,323.7,0.00,18.0,22.5,"03:48:24",1
"20/09/26","04:00",0.0,18.4,97.2,1001.9,318.3,0.8,1.1,320.6,0.00,18.0,22.3,"03:52:56",1
"20/09/26","04:10",0.0,18.5,97.2,1001.9,327.5,0.7,1.2,344.7,0.00,18.1,22.4,"04:03:36",1
"20/09/26","04:20",0.0,18.2,97.2,1001.7,283.8,0.6,1.0,324.6,0.00,17.8,22.3,"04:19:44",1
"20/09/26","04:30",0.0,18.4,97.3,1001.9,329.4,1.0,1.4,332.5,0.00,18.0,22.3,"04:28:16",1
"20/09/26","04:40",0.0,18.5,97.3,1002.2,329.7,1.3,1.7,337.5,0.00,18.1,22.3,"04:38:48",1
"20/09/26","04:50",0.0,18.6,97.3,1002.2,331.9,1.2,2.0,338.8,0.00,18.2,22.3,"04:46:00",1
"20/09/26","05:00",0.0,18.5,97.3,1001.9,315.5,0.6,1.0,317.0,0.00,18.1,22.3,"04:50:16",1
"20/09/26","05:10",0.0,18.4,97.3,1002.2,19.6,0.3,1.1,54.9,0.00,18.0,22.0,"05:02:08",1
"20/09/26","05:20",0.0,18.2,97.3,1001.9,318.7,0.7,1.3,331.9,0.00,17.8,22.0,"05:10:48",1
"20/09/26","05:30",0.0,18.0,97.4,1001.7,296.9,0.5,1.1,297.4,0.00,17.6,22.0,"05:20:16",1
"20/09/26","05:40",0.0,18.2,97.5,1002.2,299.3,1.2,2.2,328.4,0.00,17.8,22.0,"05:39:12",1
"20/09/26","05:50",0.0,18.4,97.4,1002.2,329.8,1.3,2.1,334.8,0.00,18.0,22.1,"05:41:44",1
"20/09/26","06:00",0.0,18.4,97.5,1001.9,318.1,1.2,2.7,332.6,0.00,18.0,22.0,"05:51:12",1
"20/09/26","06:10",0.0,18.4,97.5,1002.2,284.6,0.7,1.0,309.2,0.00,18.0,22.1,"06:00:08",1
"20/09/26","06:20",0.0,18.4,97.6,1002.4,288.5,0.7,1.6,294.0,0.00,18.1,21.9,"06:16:48",1
"20/09/26","06:30",0.0,18.7,97.5,1001.9,280.3,0.6,1.4,315.1,0.01,18.3,22.1,"06:20:32",1
"20/09/26","06:40",0.0,18.9,97.5,1002.4,295.8,1.0,2.1,335.2,0.02,18.5,22.0,"06:31:44",1
"20/09/26","06:50",0.0,19.1,97.5,1002.4,304.7,0.7,1.6,340.9,0.02,18.7,22.0,"06:41:12",1
"20/09/26","07:00",0.0,19.3,97.5,1002.6,9.4,0.5,1.4,341.7,0.03,18.9,21.9,"06:52:24",1
"20/09/26","07:10",0.0,19.4,97.4,1003.1,307.7,0.8,1.6,317.2,0.02,19.0,21.9,"07:08:16",1
"20/09/26","07:20",0.0,19.5,97.4,1002.6,336.5,1.2,2.8,345.9,0.03,19.1,22.1,"07:17:12",1
"20/09/26","07:30",0.0,19.7,97.4,1002.9,356.0,0.7,1.6,344.5,0.06,19.3,22.2,"07:25:36",1
"20/09/26","07:40",0.0,20.0,97.4,1002.6,328.4,0.6,1.6,326.2,0.05,19.6,22.1,"07:31:28",1
"20/09/26","07:50",0.0,20.2,97.3,1003.4,302.3,0.3,0.8,342.8,0.02,19.8,22.0,"07:47:52",1
"20/09/26","08:00",0.0,20.3,97.2,1002.6,331.3,0.5,1.7,304.5,0.02,19.9,22.2,"07:58:32",1
"20/09/26","08:10",0.0,20.5,97.3,1003.1,42.6,0.6,1.3,349.0,0.05,20.1,22.2,"08:00:24",1
"20/09/26","08:20",0.0,20.5,97.1,1002.9,260.4,0.8,1.9,351.4,0.09,20.1,22.4,"08:19:04",1
"20/09/26","08:30",0.0,20.7,97.0,1002.9,267.7,0.7,1.4,328.8,0.07,20.2,22.5,"08:25:20",1
"20/09/26","08:40",0.0,20.6,96.7,1003.1,216.9,0.7,1.4,242.2,0.08,20.1,22.4,"08:30:48",1
"20/09/26","08:50",0.0,21.0,96.6,1002.9,231.1,0.2,1.0,199.5,0.06,20.5,22.5,"08:40:24",1
"20/09/26","09:00",0.0,21.4,96.6,1002.9,298.0,0.2,0.9,321.3,0.06,20.9,22.6,"08:52:24",1
"20/09/26","09:10",0.0,21.6,96.6,1003.1,289.1,0.3,1.2,336.4,0.05,21.1,22.8,"09:09:36",1
"20/09/26","09:20",0.0,21.4,96.6,1002.9,335.2,1.1,2.1,338.5,0.05,20.9,22.6,"09:13:04",1
"20/09/26","09:30",0.0,21.6,96.6,1003.4,321.5,0.8,1.3,338.2,0.07,21.1,22.7,"09:22:32",1
"20/09/26","09:40",0.0,21.4,96.4,1002.9,292.4,1.0,2.7,347.5,0.11,20.8,22.7,"09:38:40",1
"20/09/26","09:50",0.0,21.3,96.2,1002.9,298.3,1.1,2.9,337.8,0.09,20.7,22.7,"09:41:04",1
"20/09/26","10:00",0.0,21.7,96.2,1003.1,314.6,0.7,1.3,333.9,0.09,21.1,22.8,"09:57:44",1
"20/09/26","10:10",0.0,21.4,95.8,1003.1,351.4,1.0,2.2,343.8,0.15,20.7,22.9,"10:05:28",1
"20/09/26","10:20",0.0,21.6,95.6,1003.1,346.9,1.0,2.2,339.9,0.16,20.9,23.2,"10:12:24",1
"20/09/26","10:30",0.0,21.9,95.1,1003.1,354.3,0.6,1.8,345.3,0.16,21.1,23.2,"10:20:40",1
"20/09/26","10:40",0.0,22.1,94.6,1003.4,84.6,0.6,1.8,117.3,0.12,21.2,23.1,"10:33:52",1
"20/09/26","10:50",0.0,22.4,94.2,1003.1,32.3,0.3,1.3,24.5,0.13,21.5,23.3,"10:43:52",1
"20/09/26","11:00",0.0,22.2,93.5,1002.9,335.1,1.5,3.4,321.9,0.13,21.1,23.3,"10:58:00",1
"20/09/26","11:10",0.0,22.3,92.7,1003.1,327.2,1.6,2.8,343.7,0.14,21.1,23.5,"11:08:00",1
"20/09/26","11:20",0.0,22.8,91.7,1002.6,319.5,1.2,2.6,338.0,0.17,21.4,23.6,"11:10:16",1
"20/09/26","11:30",0.0,23.2,89.6,1002.9,320.8,1.6,2.9,335.7,0.19,21.4,23.4,"11:20:16",1
"20/09/26","11:40",0.0,23.5,87.4,1002.9,305.3,1.3,3.5,332.7,0.20,21.3,23.7,"11:38:24",1
"20/09/26","11:50",0.0,24.0,85.3,1002.9,309.6,1.6,3.1,316.7,0.24,21.4,23.7,"11:48:08",1
"20/09/26","12:00",0.0,24.5,82.2,1002.6,264.6,1.3,2.9,240.8,0.27,21.3,23.9,"11:50:02",1
"20/09/26","12:10",0.0,24.6,80.4,1002.6,251.9,1.6,3.7,233.1,0.27,21.0,23.7,"12:02:32",1
"20/09/26","12:20",0.0,24.9,78.4,1002.2,241.6,1.6,3.2,251.5,0.30,20.9,24.0,"12:17:36",1
"20/09/26","12:30",0.0,24.7,76.6,1002.4,243.5,2.0,4.0,216.3,0.22,20.4,23.9,"12:22:00",1
"20/09/26","12:40",0.0,24.7,76.5,1002.4,245.8,1.8,4.1,231.6,0.19,20.3,23.9,"12:34:16",1
"20/09/26","12:50",0.0,24.9,76.5,1001.9,248.1,1.8,3.7,218.1,0.24,20.5,23.9,"12:46:16",1
"20/09/26","13:00",0.0,25.0,76.0,1001.7,235.2,1.8,4.4,223.9,0.23,20.5,23.9,"12:52:40",1
"20/09/26","13:10",0.0,25.0,75.5,1001.7,249.7,1.3,3.1,243.8,0.19,20.4,24.0,"13:04:00",1
"20/09/26","13:20",0.0,24.9,75.2,1001.9,243.4,1.8,5.0,235.8,0.13,20.2,24.0,"13:11:28",1
"20/09/26","13:30",0.0,24.8,75.1,1001.7,245.8,1.3,3.6,223.8,0.12,20.1,24.0,"13:21:52",1
"20/09/26","13:40",0.0,25.1,74.7,1001.7,256.5,0.8,1.7,283.2,0.18,20.3,24.1,"13:34:32",1
"20/09/26","13:50",0.0,25.3,73.8,1001.7,290.6,1.1,2.6,334.4,0.15,20.3,23.8,"13:46:40",1
"20/09/26","14:00",0.0,25.3,74.1,1001.9,256.9,1.0,2.2,232.5,0.14,20.4,24.0,"13:55:20",1
"20/09/26","14:10",0.0,25.4,73.8,1001.7,237.2,0.7,2.4,220.5,0.15,20.4,24.2,"14:09:36",1
"20/09/26","14:20",0.0,25.2,73.8,1001.2,269.9,1.1,2.1,243.0,0.11,20.2,24.2,"14:11:52",1
"20/09/26","14:30",0.0,25.5,74.6,1001.5,310.3,1.1,2.0,329.4,0.16,20.7,24.2,"14:24:32",1
"20/09/26","14:40",0.0,25.7,74.0,1001.2,329.8,1.2,3.4,341.4,0.20,20.8,24.0,"14:37:52",1
"20/09/26","14:50",0.0,25.7,74.0,1001.2,303.5,1.1,2.6,320.8,0.16,20.8,24.0,"14:45:52",1
"20/09/26","15:00",0.0,25.8,73.2,1001.0,308.9,0.8,2.2,351.1,0.20,20.7,24.3,"14:52:56",1
"20/09/26","15:10",0.0,26.3,72.1,1001.0,246.7,0.3,1.2,352.0,0.17,20.9,24.5,"15:08:00",1
"20/09/26","15:20",0.0,26.2,71.8,1001.0,292.6,0.5,1.8,334.8,0.12,20.7,24.5,"15:11:04",1
"20/09/26","15:30",0.0,26.0,71.7,1001.0,299.4,0.8,2.5,338.8,0.10,20.5,24.4,"15:28:40",1
"20/09/26","15:40",0.0,25.6,71.6,1001.0,268.3,1.1,2.5,221.6,0.09,20.1,24.6,"15:37:44",1
"20/09/26","15:50",0.0,25.4,72.2,1001.0,269.3,1.0,2.1,226.8,0.07,20.1,24.5,"15:42:32",1
"20/09/26","16:00",0.0,25.4,72.6,1001.2,264.3,1.0,2.5,239.1,0.07,20.2,24.5,"15:57:52",1
"20/09/26","16:10",0.0,25.3,72.8,1001.5,254.9,1.2,3.9,228.2,0.05,20.1,24.4,"16:04:08",1
"20/09/26","16:20",0.0,25.1,72.9,1001.7,279.2,1.0,2.5,321.3,0.04,19.9,24.6,"16:15:28",1
"20/09/26","16:30",0.0,25.1,73.6,1001.7,288.5,0.7,1.8,264.1,0.03,20.1,24.5,"16:20:08",1
"20/09/26","16:40",0.0,24.9,73.8,1001.7,273.1,1.0,2.2,238.6,0.02,19.9,24.3,"16:31:44",1
"20/09/26","16:50",0.2,24.6,74.4,1001.7,279.2,1.1,2.2,260.5,0.01,19.8,24.3,"16:43:36",1
"20/09/26","17:00",0.0,24.5,76.0,1001.9,296.4,0.8,2.1,293.8,0.00,20.0,24.5,"16:56:48",1
"20/09/26","17:10",0.6,23.8,77.5,1002.6,310.4,1.5,4.7,331.2,0.00,19.7,24.2,"17:07:20",1
"20/09/26","17:20",4.0,21.9,80.7,1003.1,344.5,1.7,3.1,347.2,0.00,18.5,24.0,"17:11:12",1
"20/09/26","17:30",0.4,21.1,83.4,1002.4,300.0,1.1,2.2,331.9,0.00,18.2,23.8,"17:21:44",1
"20/09/26","17:40",0.2,21.2,85.5,1002.4,312.9,1.1,2.5,343.1,0.00,18.7,23.8,"17:38:08",1
"20/09/26","17:50",0.0,21.1,86.9,1002.9,13.1,1.0,2.2,346.8,0.00,18.9,23.7,"17:41:20",1
"20/09/26","18:00",0.0,20.8,87.9,1003.1,43.7,0.3,1.4,340.9,0.00,18.8,23.5,"17:53:04",1
"20/09/26","18:10",0.0,20.7,88.6,1003.1,352.2,0.5,1.2,313.8,0.00,18.8,23.4,"18:04:48",1
"20/09/26","18:20",0.0,20.6,89.3,1003.1,343.6,0.6,1.3,343.5,0.00,18.8,23.4,"18:19:28",1
"20/09/26","18:30",0.0,20.5,89.8,1003.4,314.3,0.7,1.6,348.3,0.00,18.8,23.3,"18:21:20",1
"20/09/26","18:40",0.0,20.3,90.2,1003.6,140.3,0.2,0.9,55.1,0.00,18.7,23.4,"18:30:40",1
"20/09/26","18:50",0.0,20.3,90.7,1003.6,282.8,0.6,1.6,308.1,0.00,18.8,23.2,"18:44:24",1
"20/09/26","19:00",0.0,20.2,91.0,1003.8,302.6,0.6,1.2,339.4,0.00,18.7,23.3,"18:56:00",1
"20/09/26","19:10",0.0,20.2,91.4,1003.6,323.3,0.7,1.8,343.2,0.00,18.8,23.3,"19:09:52",1
"20/09/26","19:20",0.0,20.1,91.7,1004.1,316.2,0.7,2.2,344.1,0.00,18.7,23.2,"19:10:08",1
"20/09/26","19:30",0.0,20.0,92.0,1003.8,5.7,0.5,1.6,354.5,0.00,18.7,23.1,"19:25:44",1
"20/09/26","19:40",0.0,19.8,92.2,1004.3,258.6,0.3,1.1,315.1,0.00,18.5,23.1,"19:30:48",1
"20/09/26","19:50",0.0,19.8,92.5,1004.5,323.9,0.8,1.4,321.8,0.00,18.6,22.9,"19:46:56",1
"20/09/26","20:00",0.0,19.8,92.7,1004.8,297.0,0.6,1.1,336.1,0.00,18.6,22.9,"19:50:16",1
"20/09/26","20:10",0.0,19.8,92.9,1004.5,301.3,0.8,1.1,306.2,0.00,18.7,22.6,"20:08:16",1
"20/09/26","20:20",0.0,19.8,93.1,1005.0,305.6,0.6,1.3,268.5,0.00,18.7,22.8,"20:16:40",1
"20/09/26","20:30",0.0,20.0,93.3,1005.0,322.1,1.3,2.2,335.9,0.00,18.9,22.7,"20:27:44",1
"20/09/26","20:40",0.0,19.9,93.6,1005.0,329.3,1.2,2.5,332.0,0.00,18.9,22.7,"20:32:24",1
"20/09/26","20:50",0.0,20.1,93.7,1005.0,333.9,1.5,2.5,345.3,0.00,19.1,22.7,"20:43:12",1
"20/09/26","21:00",0.0,20.2,93.9,1005.5,336.2,1.8,3.6,337.8,0.00,19.2,22.8,"20:54:08",1
"20/09/26","21:10",0.0,20.3,94.0,1005.5,341.8,1.2,3.1,339.0,0.00,19.3,22.5,"21:01:20",1
"20/09/26","21:20",0.0,20.2,94.1,1005.5,340.3,0.3,1.2,9.7,0.00,19.3,22.7,"21:10:16",1
"20/09/26","21:30",0.0,20.2,94.2,1005.2,9.9,0.6,1.7,337.0,0.00,19.3,22.6,"21:28:56",1
"20/09/26","21:40",0.0,20.1,94.3,1005.5,343.6,1.0,1.9,344.4,0.00,19.2,22.6,"21:35:12",1
"20/09/26","21:50",0.0,20.1,94.5,1005.5,331.4,1.5,3.5,346.4,0.00,19.2,22.4,"21:45:36",1
"20/09/26","22:00",0.0,20.1,94.5,1005.5,331.0,1.3,2.6,331.5,0.00,19.2,22.7,"21:51:36",1
"20/09/26","22:10",0.0,20.0,94.6,1005.5,349.0,1.1,2.5,345.4,0.00,19.1,22.7,"22:04:24",1
"20/09/26","22:20",0.0,19.9,94.7,1005.2,343.8,1.0,1.9,335.5,0.00,19.1,22.3,"22:14:00",1
"20/09/26","22:30",0.0,19.8,94.8,1005.7,355.5,0.7,1.7,326.4,0.00,19.0,22.4,"22:25:36",1
"20/09/26","22:40",0.0,19.8,94.9,1005.7,353.4,0.6,1.3,62.3,0.00,19.0,22.5,"22:37:04",1
"20/09/26","22:50",0.0,19.7,94.9,1005.7,349.1,0.8,1.7,334.1,0.00,18.9,22.4,"22:46:16",1
"20/09/26","23:00",0.0,19.7,95.0,1005.5,337.2,0.8,1.7,350.2,0.00,18.9,22.3,"22:52:08",1
"20/09/26","23:10",0.0,19.7,95.1,1005.5,333.1,2.0,4.1,322.0,0.00,18.9,22.3,"23:05:44",1
"20/09/26","23:20",0.0,19.7,95.1,1005.7,329.4,1.7,4.0,324.7,0.00,18.9,22.3,"23:12:16",1
"20/09/26","23:30",0.0,19.6,95.1,1005.7,332.5,1.1,2.0,328.8,0.00,18.8,22.3,"23:20:08",1
"20/09/26","23:40",0.0,19.6,95.2,1005.5,324.5,1.7,3.5,323.0,0.00,18.9,22.3,"23:38:48",1
"20/09/26","23:50",0.0,19.7,95.1,1005.5,335.7,1.6,4.1,343.7,0.00,18.9,22.2,"23:40:32",1
"20/09/26","24:00",0.0,19.5,95.2,1005.2,337.3,1.2,2.4,341.3,0.00,18.8,22.2,"23:52:32",1
